Wetterdaten: Montag, 17.08.2015
Datum Zeit Temp. A. Feuchte A. Luftdruck Regen Wind Richtung Richtung Sonnenschein ET UV Solar Taupunkt Windchill Windben Empfang
17.08.2015 00:04 16,6 C 83 % 1009,9 hPa 0,0 l/m 0,4 km/h (0 Bft) W-NW 295 0 min 0,000 mm 0,0 UV-I 0 W/m 13,7 C 16,6 C 4,0 km/h (1 Bft) 0,00 %
17.08.2015 00:09 16,6 C 83 % 1010,0 hPa 0,0 l/m 5,4 km/h (1 Bft) W-SW 254 0 min 0,000 mm 0,0 UV-I 0 W/m 13,7 C 16,6 C 7,9 km/h (2 Bft) 0,00 %
17.08.2015 00:14 16,6 C 83 % 1010,1 hPa 0,0 l/m 0,0 km/h (0 Bft) NO 44 0 min 0,000 mm 0,0 UV-I 0 W/m 13,7 C 16,6 C 0,0 km/h (0 Bft) 0,00 %
17.08.2015 00:19 16,5 C 84 % 1010,0 hPa 0,0 l/m 0,7 km/h (0 Bft) NW 326 0 min 0,000 mm 0,0 UV-I 0 W/m 13,8 C 16,5 C 4,0 km/h (1 Bft) 0,00 %
17.08.2015 00:24 16,5 C 84 % 1010,3 hPa 0,0 l/m 0,0 km/h (0 Bft) N-NW 343 0 min 0,000 mm 0,0 UV-I 0 W/m 13,8 C 16,5 C 0,0 km/h (0 Bft) 0,00 %
17.08.2015 00:29 16,5 C 84 % 1010,3 hPa 0,0 l/m 0,0 km/h (0 Bft) S 172 0 min 0,000 mm 0,0 UV-I 0 W/m 13,8 C 16,5 C 0,0 km/h (0 Bft) 0,00 %
17.08.2015 00:34 16,4 C 84 % 1010,3 hPa 0,0 l/m 0,0 km/h (0 Bft) O-NO 58 0 min 0,000 mm 0,0 UV-I 0 W/m 13,7 C 16,4 C 0,0 km/h (0 Bft) 0,00 %
17.08.2015 00:39 16,4 C 85 % 1010,3 hPa 0,0 l/m 0,7 km/h (0 Bft) W-SW 256 0 min 0,000 mm 0,0 UV-I 0 W/m 13,9 C 16,4 C 4,0 km/h (1 Bft) 0,00 %
17.08.2015 00:44 16,4 C 85 % 1010,3 hPa 0,0 l/m 0,0 km/h (0 Bft) NO 49 0 min 0,000 mm 0,0 UV-I 0 W/m 13,9 C 16,4 C 0,0 km/h (0 Bft) 0,00 %
17.08.2015 00:49 16,4 C 85 % 1010,2 hPa 0,0 l/m 2,9 km/h (1 Bft) W-SW 255 0 min 0,000 mm 0,0 UV-I 0 W/m 13,9 C 16,4 C 4,0 km/h (1 Bft) 0,00 %
17.08.2015 00:54 16,4 C 85 % 1010,2 hPa 0,0 l/m 0,0 km/h (0 Bft) N-NO 28 0 min 0,000 mm 0,0 UV-I 0 W/m 13,9 C 16,4 C 0,0 km/h (0 Bft) 0,00 %
17.08.2015 00:59 16,4 C 85 % 1010,2 hPa 0,0 l/m 0,4 km/h (0 Bft) O 89 0 min 0,000 mm 0,0 UV-I 0 W/m 13,9 C 16,4 C 4,0 km/h (1 Bft) 0,00 %
17.08.2015 01:04 16,3 C 85 % 1010,1 hPa 0,0 l/m 0,0 km/h (0 Bft) O-NO 66 0 min 0,000 mm 0,0 UV-I 0 W/m 13,8 C 16,3 C 0,0 km/h (0 Bft) 0,00 %
17.08.2015 01:09 16,3 C 85 % 1010,1 hPa 0,0 l/m 0,0 km/h (0 Bft) NO 44 0 min 0,000 mm 0,0 UV-I 0 W/m 13,8 C 16,3 C 0,0 km/h (0 Bft) 0,00 %
17.08.2015 01:14 16,3 C 85 % 1010,3 hPa 0,0 l/m 0,0 km/h (0 Bft) N 5 0 min 0,000 mm 0,0 UV-I 0 W/m 13,8 C 16,3 C 0,0 km/h (0 Bft) 0,00 %
17.08.2015 01:19 16,3 C 86 % 1010,2 hPa 0,0 l/m 0,0 km/h (0 Bft) N-NW 341 0 min 0,000 mm 0,0 UV-I 0 W/m 14,0 C 16,3 C 0,0 km/h (0 Bft) 0,00 %
17.08.2015 01:24 16,3 C 86 % 1010,2 hPa 0,0 l/m 0,0 km/h (0 Bft) NO 37 0 min 0,000 mm 0,0 UV-I 0 W/m 14,0 C 16,3 C 0,0 km/h (0 Bft) 0,00 %
17.08.2015 01:29 16,3 C 86 % 1010,1 hPa 0,0 l/m 0,0 km/h (0 Bft) O-NO 62 0 min 0,000 mm 0,0 UV-I 0 W/m 14,0 C 16,3 C 0,0 km/h (0 Bft) 0,00 %
17.08.2015 01:34 16,3 C 86 % 1009,8 hPa 0,0 l/m 0,4 km/h (0 Bft) W-SW 249 0 min 0,000 mm 0,0 UV-I 0 W/m 14,0 C 16,3 C 4,0 km/h (1 Bft) 0,00 %
17.08.2015 01:39 16,2 C 86 % 1010,0 hPa 0,0 l/m 0,0 km/h (0 Bft) NO 41 0 min 0,000 mm 0,0 UV-I 0 W/m 13,9 C 16,2 C 0,0 km/h (0 Bft) 0,00 %
17.08.2015 01:44 16,2 C 86 % 1009,9 hPa 0,0 l/m 0,4 km/h (0 Bft) W-NW 284 0 min 0,000 mm 0,0 UV-I 0 W/m 13,9 C 16,2 C 4,0 km/h (1 Bft) 0,00 %
17.08.2015 01:49 16,2 C 86 % 1009,9 hPa 0,0 l/m 0,0 km/h (0 Bft) N-NO 20 0 min 0,000 mm 0,0 UV-I 0 W/m 13,9 C 16,2 C 0,0 km/h (0 Bft) 0,00 %
17.08.2015 01:54 16,2 C 86 % 1009,8 hPa 0,0 l/m 0,0 km/h (0 Bft) N 356 0 min 0,000 mm 0,0 UV-I 0 W/m 13,9 C 16,2 C 0,0 km/h (0 Bft) 0,00 %
17.08.2015 01:59 16,2 C 86 % 1010,0 hPa 0,0 l/m 0,0 km/h (0 Bft) NO 42 0 min 0,000 mm 0,0 UV-I 0 W/m 13,9 C 16,2 C 0,0 km/h (0 Bft) 0,00 %
17.08.2015 02:04 16,2 C 87 % 1009,8 hPa 0,0 l/m 0,0 km/h (0 Bft) N-NW 336 0 min 0,000 mm 0,0 UV-I 0 W/m 14,0 C 16,2 C 0,0 km/h (0 Bft) 0,00 %
17.08.2015 02:09 16,2 C 87 % 1009,7 hPa 0,0 l/m 0,0 km/h (0 Bft) W-SW 255 0 min 0,000 mm 0,0 UV-I 0 W/m 14,0 C 16,2 C 0,0 km/h (0 Bft) 0,00 %
17.08.2015 02:14 16,2 C 87 % 1009,7 hPa 0,0 l/m 0,0 km/h (0 Bft) N 4 0 min 0,000 mm 0,0 UV-I 0 W/m 14,0 C 16,2 C 0,0 km/h (0 Bft) 0,00 %
17.08.2015 02:19 16,2 C 87 % 1009,9 hPa 0,0 l/m 0,0 km/h (0 Bft) N-NO 27 0 min 0,000 mm 0,0 UV-I 0 W/m 14,0 C 16,2 C 0,0 km/h (0 Bft) 0,00 %
17.08.2015 02:24 16,2 C 87 % 1010,0 hPa 0,0 l/m 0,0 km/h (0 Bft) NW 326 0 min 0,000 mm 0,0 UV-I 0 W/m 14,0 C 16,2 C 0,0 km/h (0 Bft) 0,00 %
17.08.2015 02:29 16,2 C 87 % 1010,0 hPa 0,0 l/m 0,0 km/h (0 Bft) N 352 0 min 0,000 mm 0,0 UV-I 0 W/m 14,0 C 16,2 C 0,0 km/h (0 Bft) 0,00 %
17.08.2015 02:34 16,2 C 87 % 1010,0 hPa 0,0 l/m 0,0 km/h (0 Bft) N 3 0 min 0,000 mm 0,0 UV-I 0 W/m 14,0 C 16,2 C 0,0 km/h (0 Bft) 0,00 %
17.08.2015 02:39 16,2 C 87 % 1009,9 hPa 0,0 l/m 0,0 km/h (0 Bft) NO 43 0 min 0,000 mm 0,0 UV-I 0 W/m 14,0 C 16,2 C 0,0 km/h (0 Bft) 0,00 %
17.08.2015 02:44 16,2 C 87 % 1009,9 hPa 0,0 l/m 0,0 km/h (0 Bft) N-NO 13 0 min 0,000 mm 0,0 UV-I 0 W/m 14,0 C 16,2 C 0,0 km/h (0 Bft) 0,00 %
17.08.2015 02:49 16,3 C 87 % 1009,9 hPa 0,0 l/m 0,0 km/h (0 Bft) N-NO 23 0 min 0,000 mm 0,0 UV-I 0 W/m 14,1 C 16,3 C 0,0 km/h (0 Bft) 0,00 %
17.08.2015 02:54 16,3 C 86 % 1009,9 hPa 0,0 l/m 0,0 km/h (0 Bft) N-NO 33 0 min 0,000 mm 0,0 UV-I 0 W/m 14,0 C 16,3 C 0,0 km/h (0 Bft) 0,00 %
17.08.2015 02:59 16,3 C 86 % 1009,8 hPa 0,0 l/m 0,0 km/h (0 Bft) NO 42 0 min 0,000 mm 0,0 UV-I 0 W/m 14,0 C 16,3 C 0,0 km/h (0 Bft) 0,00 %
17.08.2015 03:04 16,3 C 86 % 1009,9 hPa 0,0 l/m 0,0 km/h (0 Bft) N-NW 344 0 min 0,000 mm 0,0 UV-I 0 W/m 14,0 C 16,3 C 0,0 km/h (0 Bft) 0,00 %
17.08.2015 03:09 16,4 C 86 % 1009,9 hPa 0,0 l/m 1,8 km/h (1 Bft) W-SW 252 0 min 0,000 mm 0,0 UV-I 0 W/m 14,1 C 16,4 C 4,0 km/h (1 Bft) 0,00 %
17.08.2015 03:14 16,4 C 86 % 1009,8 hPa 0,0 l/m 1,8 km/h (1 Bft) W-SW 255 0 min 0,000 mm 0,0 UV-I 0 W/m 14,1 C 16,4 C 4,0 km/h (1 Bft) 0,00 %
17.08.2015 03:19 16,4 C 86 % 1009,9 hPa 0,0 l/m 0,0 km/h (0 Bft) N 355 0 min 0,000 mm 0,0 UV-I 0 W/m 14,1 C 16,4 C 0,0 km/h (0 Bft) 0,00 %
17.08.2015 03:24 16,4 C 87 % 1009,9 hPa 0,0 l/m 0,4 km/h (0 Bft) W-NW 282 0 min 0,000 mm 0,0 UV-I 0 W/m 14,2 C 16,4 C 4,0 km/h (1 Bft) 0,00 %
17.08.2015 03:29 16,3 C 88 % 1010,0 hPa 0,0 l/m 0,7 km/h (0 Bft) N-NW 342 0 min 0,000 mm 0,0 UV-I 0 W/m 14,3 C 16,3 C 4,0 km/h (1 Bft) 0,00 %
17.08.2015 03:34 16,2 C 89 % 1010,0 hPa 0,0 l/m 7,2 km/h (2 Bft) W 276 0 min 0,000 mm 0,0 UV-I 0 W/m 14,4 C 15,8 C 11,9 km/h (2 Bft) 0,00 %
17.08.2015 03:39 16,1 C 89 % 1010,0 hPa 0,0 l/m 0,4 km/h (0 Bft) N 353 0 min 0,000 mm 0,0 UV-I 0 W/m 14,3 C 16,1 C 4,0 km/h (1 Bft) 0,00 %
17.08.2015 03:44 16,1 C 90 % 1010,1 hPa 0,0 l/m 0,0 km/h (0 Bft) NO 46 0 min 0,000 mm 0,0 UV-I 0 W/m 14,5 C 16,1 C 0,0 km/h (0 Bft) 0,00 %
17.08.2015 03:49 16,0 C 90 % 1010,1 hPa 0,3 l/m 0,4 km/h (0 Bft) N-NW 348 0 min 0,000 mm 0,0 UV-I 0 W/m 14,4 C 16,0 C 4,0 km/h (1 Bft) 0,00 %
17.08.2015 03:54 15,9 C 92 % 1009,9 hPa 0,0 l/m 0,0 km/h (0 Bft) NO 43 0 min 0,000 mm 0,0 UV-I 0 W/m 14,6 C 15,9 C 0,0 km/h (0 Bft) 0,00 %
17.08.2015 03:59 15,8 C 92 % 1009,9 hPa 0,0 l/m 0,0 km/h (0 Bft) NW 309 0 min 0,000 mm 0,0 UV-I 0 W/m 14,5 C 15,8 C 0,0 km/h (0 Bft) 0,00 %
17.08.2015 04:04 15,8 C 93 % 1010,0 hPa 0,3 l/m 1,4 km/h (1 Bft) W-SW 253 0 min 0,000 mm 0,0 UV-I 0 W/m 14,7 C 15,8 C 4,0 km/h (1 Bft) 0,00 %
17.08.2015 04:09 15,7 C 93 % 1009,8 hPa 0,0 l/m 1,4 km/h (1 Bft) W-SW 255 0 min 0,000 mm 0,0 UV-I 0 W/m 14,6 C 15,7 C 4,0 km/h (1 Bft) 0,00 %
17.08.2015 04:14 15,6 C 94 % 1009,8 hPa 0,3 l/m 0,0 km/h (0 Bft) N-NW 345 0 min 0,000 mm 0,0 UV-I 0 W/m 14,6 C 15,6 C 0,0 km/h (0 Bft) 0,00 %
17.08.2015 04:19 15,6 C 95 % 1009,8 hPa 0,0 l/m 3,2 km/h (1 Bft) W-SW 240 0 min 0,000 mm 0,0 UV-I 0 W/m 14,8 C 15,6 C 4,0 km/h (1 Bft) 0,00 %
17.08.2015 04:24 15,5 C 95 % 1009,7 hPa 0,0 l/m 0,0 km/h (0 Bft) N 352 0 min 0,000 mm 0,0 UV-I 0 W/m 14,7 C 15,5 C 0,0 km/h (0 Bft) 0,00 %
17.08.2015 04:29 15,5 C 95 % 1009,7 hPa 0,0 l/m 1,4 km/h (1 Bft) W 269 0 min 0,000 mm 0,0 UV-I 0 W/m 14,7 C 15,5 C 4,0 km/h (1 Bft) 0,00 %
17.08.2015 04:34 15,5 C 96 % 1009,7 hPa 0,3 l/m 0,0 km/h (0 Bft) O-NO 59 0 min 0,000 mm 0,0 UV-I 0 W/m 14,9 C 15,5 C 0,0 km/h (0 Bft) 0,00 %
17.08.2015 04:39 15,5 C 96 % 1009,6 hPa 0,0 l/m 0,7 km/h (0 Bft) NW 323 0 min 0,000 mm 0,0 UV-I 0 W/m 14,9 C 15,5 C 4,0 km/h (1 Bft) 0,00 %
17.08.2015 04:44 15,5 C 96 % 1009,5 hPa 0,0 l/m 0,4 km/h (0 Bft) S-SW 207 0 min 0,000 mm 0,0 UV-I 0 W/m 14,9 C 15,5 C 4,0 km/h (1 Bft) 0,00 %
17.08.2015 04:49 15,4 C 96 % 1009,4 hPa 0,0 l/m 1,8 km/h (1 Bft) NW 307 0 min 0,000 mm 0,0 UV-I 0 W/m 14,8 C 15,4 C 4,0 km/h (1 Bft) 0,00 %
17.08.2015 04:54 15,4 C 97 % 1009,4 hPa 0,0 l/m 0,7 km/h (0 Bft) W-SW 249 0 min 0,000 mm 0,0 UV-I 0 W/m 14,9 C 15,4 C 4,0 km/h (1 Bft) 0,00 %
17.08.2015 04:59 15,4 C 97 % 1009,5 hPa 0,0 l/m 4,3 km/h (1 Bft) W-SW 256 0 min 0,000 mm 0,0 UV-I 0 W/m 14,9 C 15,4 C 7,9 km/h (2 Bft) 0,00 %
17.08.2015 05:04 15,4 C 97 % 1009,2 hPa 0,3 l/m 4,0 km/h (1 Bft) W 259 0 min 0,000 mm 0,0 UV-I 0 W/m 14,9 C 15,4 C 4,0 km/h (1 Bft) 0,00 %
17.08.2015 05:09 15,4 C 97 % 1009,2 hPa 0,0 l/m 0,7 km/h (0 Bft) W 278 0 min 0,000 mm 0,0 UV-I 0 W/m 14,9 C 15,4 C 4,0 km/h (1 Bft) 0,00 %
17.08.2015 05:14 15,3 C 97 % 1009,2 hPa 0,0 l/m 4,7 km/h (1 Bft) W-NW 294 0 min 0,000 mm 0,0 UV-I 0 W/m 14,8 C 15,3 C 7,9 km/h (2 Bft) 0,00 %
17.08.2015 05:19 15,3 C 97 % 1009,2 hPa 0,0 l/m 4,7 km/h (1 Bft) W 280 0 min 0,000 mm 0,0 UV-I 0 W/m 14,8 C 15,3 C 7,9 km/h (2 Bft) 0,00 %
17.08.2015 05:24 15,3 C 97 % 1009,3 hPa 0,0 l/m 7,2 km/h (2 Bft) W-NW 289 0 min 0,000 mm 0,0 UV-I 0 W/m 14,8 C 14,9 C 11,9 km/h (2 Bft) 0,00 %
17.08.2015 05:29 15,2 C 97 % 1009,4 hPa 0,0 l/m 4,7 km/h (1 Bft) W-SW 256 0 min 0,000 mm 0,0 UV-I 0 W/m 14,7 C 15,2 C 7,9 km/h (2 Bft) 0,00 %
17.08.2015 05:34 15,2 C 98 % 1009,3 hPa 0,0 l/m 7,2 km/h (2 Bft) SW 228 0 min 0,000 mm 0,0 UV-I 0 W/m 14,9 C 14,8 C 7,9 km/h (2 Bft) 0,00 %
17.08.2015 05:39 15,2 C 98 % 1009,4 hPa 0,3 l/m 0,0 km/h (0 Bft) NO 43 0 min 0,000 mm 0,0 UV-I 0 W/m 14,9 C 15,2 C 0,0 km/h (0 Bft) 0,00 %
17.08.2015 05:44 15,2 C 98 % 1009,3 hPa 0,0 l/m 2,2 km/h (1 Bft) N-NW 345 0 min 0,000 mm 0,0 UV-I 0 W/m 14,9 C 15,2 C 4,0 km/h (1 Bft) 0,00 %
17.08.2015 05:49 15,2 C 98 % 1009,5 hPa 0,0 l/m 0,0 km/h (0 Bft) O 83 0 min 0,000 mm 0,0 UV-I 0 W/m 14,9 C 15,2 C 0,0 km/h (0 Bft) 0,00 %
17.08.2015 05:54 15,2 C 98 % 1009,3 hPa 0,0 l/m 1,8 km/h (1 Bft) W-NW 291 0 min 0,000 mm 0,0 UV-I 0 W/m 14,9 C 15,2 C 4,0 km/h (1 Bft) 0,00 %
17.08.2015 05:59 15,2 C 98 % 1009,4 hPa 0,0 l/m 4,0 km/h (1 Bft) NW 320 0 min 0,000 mm 0,0 UV-I 0 W/m 14,9 C 15,2 C 4,0 km/h (1 Bft) 0,00 %
17.08.2015 06:04 15,2 C 98 % 1009,4 hPa 0,0 l/m 7,9 km/h (2 Bft) W-NW 287 0 min 0,000 mm 0,0 UV-I 0 W/m 14,9 C 14,4 C 11,9 km/h (2 Bft) 0,00 %
17.08.2015 06:09 15,2 C 98 % 1009,4 hPa 0,3 l/m 0,4 km/h (0 Bft) N-NW 345 0 min 0,000 mm 0,0 UV-I 0 W/m 14,9 C 15,2 C 4,0 km/h (1 Bft) 0,00 %
17.08.2015 06:14 15,2 C 98 % 1009,5 hPa 0,0 l/m 3,2 km/h (1 Bft) W-NW 290 0 min 0,000 mm 0,0 UV-I 0 W/m 14,9 C 15,2 C 4,0 km/h (1 Bft) 0,00 %
17.08.2015 06:19 15,2 C 98 % 1009,5 hPa 0,0 l/m 0,4 km/h (0 Bft) NW 310 0 min 0,000 mm 0,0 UV-I 0 W/m 14,9 C 15,2 C 4,0 km/h (1 Bft) 0,00 %
17.08.2015 06:24 15,2 C 98 % 1009,5 hPa 0,0 l/m 0,4 km/h (0 Bft) W-SW 256 0 min 0,000 mm 0,0 UV-I 0 W/m 14,9 C 15,2 C 4,0 km/h (1 Bft) 0,00 %
17.08.2015 06:29 15,2 C 98 % 1009,5 hPa 0,3 l/m 3,2 km/h (1 Bft) N-NW 339 0 min 0,000 mm 0,0 UV-I 0 W/m 14,9 C 15,2 C 7,9 km/h (2 Bft) 0,00 %
17.08.2015 06:34 15,2 C 98 % 1009,6 hPa 0,3 l/m 0,0 km/h (0 Bft) NO 39 0 min 0,000 mm 0,0 UV-I 0 W/m 14,9 C 15,2 C 0,0 km/h (0 Bft) 0,00 %
17.08.2015 06:39 15,2 C 98 % 1009,5 hPa 0,0 l/m 1,8 km/h (1 Bft) W-NW 289 0 min 0,000 mm 0,0 UV-I 0 W/m 14,9 C 15,2 C 4,0 km/h (1 Bft) 0,00 %
17.08.2015 06:44 15,1 C 98 % 1009,6 hPa 0,3 l/m 5,4 km/h (1 Bft) W-SW 255 0 min 0,000 mm 0,0 UV-I 0 W/m 14,8 C 15,1 C 7,9 km/h (2 Bft) 0,00 %
17.08.2015 06:49 15,1 C 98 % 1009,5 hPa 0,3 l/m 11,9 km/h (2 Bft) W-NW 282 0 min 0,000 mm 0,0 UV-I 2 W/m 14,8 C 12,4 C 15,8 km/h (3 Bft) 0,00 %
17.08.2015 06:54 15,1 C 98 % 1009,4 hPa 0,3 l/m 5,8 km/h (2 Bft) W-SW 256 0 min 0,000 mm 0,0 UV-I 3 W/m 14,8 C 15,1 C 7,9 km/h (2 Bft) 0,00 %
17.08.2015 06:59 15,0 C 98 % 1009,6 hPa 0,3 l/m 2,9 km/h (1 Bft) W-SW 255 0 min 0,000 mm 0,0 UV-I 2 W/m 14,7 C 15,0 C 4,0 km/h (1 Bft) 0,00 %
17.08.2015 07:04 15,0 C 98 % 1009,6 hPa 0,6 l/m 5,8 km/h (2 Bft) W-NW 302 0 min 0,000 mm 0,0 UV-I 2 W/m 14,7 C 15,0 C 7,9 km/h (2 Bft) 0,00 %
17.08.2015 07:09 15,0 C 98 % 1009,5 hPa 0,3 l/m 10,8 km/h (2 Bft) SW 226 0 min 0,000 mm 0,0 UV-I 4 W/m 14,7 C 12,8 C 11,9 km/h (2 Bft) 0,00 %
17.08.2015 07:14 14,9 C 98 % 1009,6 hPa 0,0 l/m 2,9 km/h (1 Bft) W-SW 254 0 min 0,000 mm 0,0 UV-I 12 W/m 14,6 C 14,9 C 4,0 km/h (1 Bft) 0,00 %
17.08.2015 07:19 14,9 C 98 % 1009,6 hPa 0,3 l/m 4,0 km/h (1 Bft) W-NW 284 0 min 0,000 mm 0,0 UV-I 17 W/m 14,6 C 14,9 C 7,9 km/h (2 Bft) 0,00 %
17.08.2015 07:24 14,9 C 98 % 1009,5 hPa 0,3 l/m 1,4 km/h (1 Bft) N-NW 347 0 min 0,000 mm 0,0 UV-I 19 W/m 14,6 C 14,9 C 4,0 km/h (1 Bft) 0,00 %
17.08.2015 07:29 14,8 C 98 % 1009,7 hPa 0,0 l/m 7,2 km/h (2 Bft) NW 310 0 min 0,000 mm 0,0 UV-I 19 W/m 14,5 C 14,3 C 11,9 km/h (2 Bft) 0,00 %
17.08.2015 07:34 14,9 C 99 % 1009,7 hPa 0,3 l/m 4,0 km/h (1 Bft) W-SW 256 0 min 0,000 mm 0,0 UV-I 20 W/m 14,7 C 14,9 C 4,0 km/h (1 Bft) 0,00 %
17.08.2015 07:39 14,9 C 98 % 1009,7 hPa 0,0 l/m 0,0 km/h (0 Bft) N-NO 26 0 min 0,000 mm 0,0 UV-I 20 W/m 14,6 C 14,9 C 0,0 km/h (0 Bft) 0,00 %
17.08.2015 07:44 14,9 C 98 % 1009,6 hPa 0,3 l/m 11,5 km/h (2 Bft) W-SW 254 0 min 0,000 mm 0,0 UV-I 22 W/m 14,6 C 12,4 C 11,9 km/h (2 Bft) 0,00 %
17.08.2015 07:49 15,0 C 98 % 1009,5 hPa 0,3 l/m 3,2 km/h (1 Bft) W-SW 256 0 min 0,000 mm 0,0 UV-I 29 W/m 14,7 C 15,0 C 7,9 km/h (2 Bft) 0,00 %
17.08.2015 07:54 15,0 C 98 % 1009,7 hPa 0,0 l/m 7,2 km/h (2 Bft) W-SW 254 0 min 0,000 mm 0,0 UV-I 34 W/m 14,7 C 14,5 C 7,9 km/h (2 Bft) 0,00 %
17.08.2015 07:59 15,0 C 98 % 1009,5 hPa 0,3 l/m 0,0 km/h (0 Bft) NO 45 0 min 0,000 mm 0,0 UV-I 42 W/m 14,7 C 15,0 C 0,0 km/h (0 Bft) 0,00 %
17.08.2015 08:04 15,0 C 98 % 1009,6 hPa 0,3 l/m 2,9 km/h (1 Bft) N 356 0 min 0,000 mm 0,0 UV-I 46 W/m 14,7 C 15,0 C 4,0 km/h (1 Bft) 0,00 %
17.08.2015 08:09 15,0 C 98 % 1009,3 hPa 0,3 l/m 5,4 km/h (1 Bft) W-SW 255 0 min 0,000 mm 0,0 UV-I 52 W/m 14,7 C 15,0 C 7,9 km/h (2 Bft) 0,00 %
17.08.2015 08:14 15,0 C 98 % 1009,4 hPa 0,0 l/m 1,8 km/h (1 Bft) W-SW 255 0 min 0,000 mm 0,0 UV-I 59 W/m 14,7 C 15,0 C 4,0 km/h (1 Bft) 0,00 %
17.08.2015 08:19 15,0 C 98 % 1009,4 hPa 0,3 l/m 2,2 km/h (1 Bft) N-NO 25 0 min 0,000 mm 0,0 UV-I 68 W/m 14,7 C 15,0 C 4,0 km/h (1 Bft) 0,00 %
17.08.2015 08:24 15,0 C 98 % 1009,4 hPa 0,3 l/m 4,3 km/h (1 Bft) W-NW 298 0 min 0,000 mm 0,0 UV-I 77 W/m 14,7 C 15,0 C 7,9 km/h (2 Bft) 0,00 %
17.08.2015 08:29 15,0 C 98 % 1009,4 hPa 0,3 l/m 4,0 km/h (1 Bft) O-NO 67 0 min 0,000 mm 0,0 UV-I 84 W/m 14,7 C 15,0 C 7,9 km/h (2 Bft) 0,00 %
17.08.2015 08:34 15,1 C 98 % 1009,4 hPa 0,3 l/m 0,0 km/h (0 Bft) NO 45 0 min 0,000 mm 0,0 UV-I 88 W/m 14,8 C 15,1 C 0,0 km/h (0 Bft) 0,00 %
17.08.2015 08:39 15,1 C 98 % 1009,6 hPa 0,0 l/m 9,0 km/h (2 Bft) N 349 0 min 0,000 mm 0,0 UV-I 78 W/m 14,8 C 13,7 C 11,9 km/h (2 Bft) 0,00 %
17.08.2015 08:44 15,1 C 98 % 1009,2 hPa 0,0 l/m 6,8 km/h (2 Bft) W 270 0 min 0,000 mm 0,0 UV-I 87 W/m 14,8 C 14,9 C 11,9 km/h (2 Bft) 0,00 %
17.08.2015 08:49 15,0 C 98 % 1009,4 hPa 0,3 l/m 4,3 km/h (1 Bft) W-NW 295 0 min 0,000 mm 1,0 UV-I 109 W/m 14,7 C 15,0 C 7,9 km/h (2 Bft) 0,00 %
17.08.2015 08:54 15,0 C 98 % 1009,3 hPa 0,0 l/m 9,7 km/h (2 Bft) W-SW 255 0 min 0,000 mm 1,0 UV-I 122 W/m 14,7 C 13,3 C 11,9 km/h (2 Bft) 0,00 %
17.08.2015 08:59 15,0 C 98 % 1009,3 hPa 0,3 l/m 6,8 km/h (2 Bft) W-SW 256 0 min 0,000 mm 1,0 UV-I 132 W/m 14,7 C 14,8 C 7,9 km/h (2 Bft) 0,00 %
17.08.2015 09:04 15,0 C 98 % 1009,5 hPa 0,0 l/m 5,4 km/h (1 Bft) SW 226 0 min 0,000 mm 1,0 UV-I 154 W/m 14,7 C 15,0 C 11,9 km/h (2 Bft) 0,00 %
17.08.2015 09:09 15,0 C 98 % 1009,2 hPa 0,3 l/m 4,3 km/h (1 Bft) W-NW 299 0 min 0,000 mm 1,0 UV-I 152 W/m 14,7 C 15,0 C 7,9 km/h (2 Bft) 0,00 %
17.08.2015 09:14 15,1 C 98 % 1009,3 hPa 0,0 l/m 1,4 km/h (1 Bft) W-SW 255 0 min 0,000 mm 1,0 UV-I 164 W/m 14,8 C 15,1 C 4,0 km/h (1 Bft) 0,00 %
17.08.2015 09:19 15,2 C 98 % 1009,4 hPa 0,3 l/m 9,4 km/h (2 Bft) W-SW 256 0 min 0,000 mm 1,0 UV-I 179 W/m 14,9 C 13,6 C 11,9 km/h (2 Bft) 0,00 %
17.08.2015 09:24 15,3 C 98 % 1009,7 hPa 0,0 l/m 13,0 km/h (3 Bft) W-NW 287 0 min 0,000 mm 1,0 UV-I 136 W/m 15,0 C 12,2 C 15,8 km/h (3 Bft) 0,00 %
17.08.2015 09:29 15,2 C 97 % 1009,7 hPa 0,0 l/m 0,0 km/h (0 Bft) O 95 0 min 0,000 mm 1,0 UV-I 96 W/m 14,7 C 15,2 C 0,0 km/h (0 Bft) 0,00 %
17.08.2015 09:34 15,0 C 97 % 1009,9 hPa 0,0 l/m 13,0 km/h (3 Bft) W-SW 254 0 min 0,000 mm 1,0 UV-I 127 W/m 14,5 C 11,9 C 19,8 km/h (3 Bft) 0,00 %
17.08.2015 09:39 14,9 C 97 % 1009,7 hPa 0,3 l/m 0,0 km/h (0 Bft) N-NW 347 0 min 0,000 mm 1,0 UV-I 108 W/m 14,4 C 14,9 C 0,0 km/h (0 Bft) 0,00 %
17.08.2015 09:44 14,9 C 97 % 1009,4 hPa 0,0 l/m 6,8 km/h (2 Bft) W-NW 288 0 min 0,000 mm 1,0 UV-I 176 W/m 14,4 C 14,7 C 11,9 km/h (2 Bft) 0,00 %
17.08.2015 09:49 15,0 C 97 % 1009,5 hPa 0,0 l/m 0,7 km/h (0 Bft) N 351 0 min 0,000 mm 1,0 UV-I 184 W/m 14,5 C 15,0 C 4,0 km/h (1 Bft) 0,00 %
17.08.2015 09:54 15,0 C 96 % 1009,5 hPa 0,0 l/m 2,2 km/h (1 Bft) N-NW 344 0 min 0,000 mm 1,0 UV-I 200 W/m 14,4 C 15,0 C 4,0 km/h (1 Bft) 0,00 %
17.08.2015 09:59 14,9 C 96 % 1009,5 hPa 0,0 l/m 2,2 km/h (1 Bft) NW 325 0 min 0,000 mm 1,0 UV-I 192 W/m 14,3 C 14,9 C 4,0 km/h (1 Bft) 0,00 %
17.08.2015 10:04 14,9 C 95 % 1009,4 hPa 0,0 l/m 0,4 km/h (0 Bft) N 357 0 min 0,000 mm 1,0 UV-I 209 W/m 14,1 C 14,9 C 4,0 km/h (1 Bft) 0,00 %
17.08.2015 10:09 15,0 C 95 % 1009,6 hPa 0,0 l/m 8,3 km/h (2 Bft) W-SW 255 0 min 0,000 mm 1,0 UV-I 207 W/m 14,2 C 13,9 C 11,9 km/h (2 Bft) 0,00 %
17.08.2015 10:14 15,1 C 95 % 1009,6 hPa 0,0 l/m 2,2 km/h (1 Bft) N 349 0 min 0,000 mm 1,0 UV-I 178 W/m 14,3 C 15,1 C 4,0 km/h (1 Bft) 0,00 %
17.08.2015 10:19 15,1 C 94 % 1009,6 hPa 0,0 l/m 10,4 km/h (2 Bft) W-NW 294 0 min 0,000 mm 1,0 UV-I 186 W/m 14,1 C 13,1 C 15,8 km/h (3 Bft) 0,00 %
17.08.2015 10:24 15,1 C 94 % 1009,7 hPa 0,0 l/m 1,8 km/h (1 Bft) NO 48 0 min 0,000 mm 1,0 UV-I 208 W/m 14,1 C 15,1 C 4,0 km/h (1 Bft) 0,00 %
17.08.2015 10:29 15,1 C 93 % 1009,7 hPa 0,0 l/m 1,8 km/h (1 Bft) O-NO 62 0 min 0,000 mm 1,0 UV-I 225 W/m 14,0 C 15,1 C 7,9 km/h (2 Bft) 0,00 %
17.08.2015 10:34 15,1 C 92 % 1009,7 hPa 0,0 l/m 8,3 km/h (2 Bft) W-NW 300 0 min 0,000 mm 1,0 UV-I 219 W/m 13,8 C 14,0 C 11,9 km/h (2 Bft) 0,00 %
17.08.2015 10:39 15,1 C 92 % 1009,7 hPa 0,0 l/m 3,2 km/h (1 Bft) N-NW 343 0 min 0,000 mm 1,0 UV-I 198 W/m 13,8 C 15,1 C 4,0 km/h (1 Bft) 0,00 %
17.08.2015 10:44 15,2 C 91 % 1009,8 hPa 0,0 l/m 10,4 km/h (2 Bft) W-SW 253 0 min 0,000 mm 1,0 UV-I 198 W/m 13,7 C 13,2 C 11,9 km/h (2 Bft) 0,00 %
17.08.2015 10:49 15,2 C 91 % 1009,7 hPa 0,0 l/m 7,9 km/h (2 Bft) SW 234 0 min 0,000 mm 1,0 UV-I 197 W/m 13,7 C 14,4 C 11,9 km/h (2 Bft) 0,00 %
17.08.2015 10:54 15,2 C 90 % 1009,5 hPa 0,0 l/m 9,7 km/h (2 Bft) W-SW 256 0 min 0,000 mm 1,0 UV-I 200 W/m 13,6 C 13,5 C 11,9 km/h (2 Bft) 0,00 %
17.08.2015 10:59 15,1 C 90 % 1009,8 hPa 0,0 l/m 7,9 km/h (2 Bft) N-NW 334 0 min 0,000 mm 1,0 UV-I 208 W/m 13,5 C 14,3 C 15,8 km/h (3 Bft) 0,00 %
17.08.2015 11:04 15,1 C 90 % 1009,7 hPa 0,0 l/m 1,4 km/h (1 Bft) S-SW 195 0 min 0,000 mm 1,0 UV-I 219 W/m 13,5 C 15,1 C 4,0 km/h (1 Bft) 0,00 %
17.08.2015 11:09 15,1 C 90 % 1009,7 hPa 0,0 l/m 7,2 km/h (2 Bft) N-NW 342 0 min 0,000 mm 1,0 UV-I 250 W/m 13,5 C 14,6 C 7,9 km/h (2 Bft) 0,00 %
17.08.2015 11:14 15,2 C 90 % 1009,9 hPa 0,0 l/m 10,8 km/h (2 Bft) W-SW 256 0 min 0,000 mm 1,0 UV-I 212 W/m 13,6 C 13,0 C 11,9 km/h (2 Bft) 0,00 %
17.08.2015 11:19 15,2 C 89 % 1009,9 hPa 0,0 l/m 5,8 km/h (2 Bft) W-SW 251 0 min 0,000 mm 1,0 UV-I 159 W/m 13,4 C 15,2 C 11,9 km/h (2 Bft) 0,00 %
17.08.2015 11:24 15,2 C 89 % 1010,1 hPa 0,0 l/m 3,2 km/h (1 Bft) W 269 0 min 0,000 mm 1,0 UV-I 148 W/m 13,4 C 15,2 C 7,9 km/h (2 Bft) 0,00 %
17.08.2015 11:29 15,1 C 89 % 1010,1 hPa 0,0 l/m 1,4 km/h (1 Bft) N-NW 339 0 min 0,000 mm 1,0 UV-I 162 W/m 13,3 C 15,1 C 4,0 km/h (1 Bft) 0,00 %
17.08.2015 11:34 15,1 C 90 % 1010,1 hPa 0,0 l/m 1,8 km/h (1 Bft) O-NO 58 0 min 0,000 mm 1,0 UV-I 161 W/m 13,5 C 15,1 C 4,0 km/h (1 Bft) 0,00 %
17.08.2015 11:39 15,1 C 89 % 1010,2 hPa 0,0 l/m 7,2 km/h (2 Bft) W-NW 285 0 min 0,000 mm 1,0 UV-I 139 W/m 13,3 C 14,6 C 11,9 km/h (2 Bft) 0,00 %
17.08.2015 11:44 15,1 C 89 % 1010,2 hPa 0,0 l/m 0,4 km/h (0 Bft) N 356 0 min 0,000 mm 1,0 UV-I 170 W/m 13,3 C 15,1 C 4,0 km/h (1 Bft) 0,00 %
17.08.2015 11:49 15,1 C 89 % 1009,9 hPa 0,0 l/m 4,0 km/h (1 Bft) W-NW 292 0 min 0,000 mm 1,0 UV-I 256 W/m 13,3 C 15,1 C 7,9 km/h (2 Bft) 0,00 %
17.08.2015 11:54 15,2 C 87 % 1010,2 hPa 0,0 l/m 4,0 km/h (1 Bft) W-NW 293 0 min 0,000 mm 1,0 UV-I 301 W/m 13,0 C 15,2 C 7,9 km/h (2 Bft) 0,00 %
17.08.2015 11:59 15,3 C 87 % 1010,2 hPa 0,0 l/m 0,0 km/h (0 Bft) N-NW 340 0 min 0,000 mm 1,0 UV-I 282 W/m 13,1 C 15,3 C 0,0 km/h (0 Bft) 0,00 %
17.08.2015 12:04 15,5 C 86 % 1010,1 hPa 0,0 l/m 4,3 km/h (1 Bft) W-SW 255 0 min 0,000 mm 1,0 UV-I 234 W/m 13,2 C 15,5 C 7,9 km/h (2 Bft) 0,00 %
17.08.2015 12:09 15,7 C 85 % 1010,2 hPa 0,0 l/m 9,4 km/h (2 Bft) W-SW 238 0 min 0,000 mm 1,0 UV-I 285 W/m 13,2 C 14,2 C 11,9 km/h (2 Bft) 0,00 %
17.08.2015 12:14 15,8 C 85 % 1010,1 hPa 0,0 l/m 0,0 km/h (0 Bft) N-NO 18 0 min 0,000 mm 1,0 UV-I 269 W/m 13,3 C 15,8 C 0,0 km/h (0 Bft) 0,00 %
17.08.2015 12:19 15,9 C 85 % 1010,1 hPa 0,0 l/m 4,3 km/h (1 Bft) W-NW 294 0 min 0,000 mm 1,0 UV-I 225 W/m 13,4 C 15,9 C 7,9 km/h (2 Bft) 0,00 %
17.08.2015 12:24 15,9 C 87 % 1010,0 hPa 0,0 l/m 2,2 km/h (1 Bft) W-NW 291 0 min 0,000 mm 1,0 UV-I 224 W/m 13,7 C 15,9 C 7,9 km/h (2 Bft) 0,00 %
17.08.2015 12:29 15,8 C 87 % 1010,2 hPa 0,0 l/m 0,0 km/h (0 Bft) N-NO 19 0 min 0,000 mm 1,0 UV-I 311 W/m 13,6 C 15,8 C 0,0 km/h (0 Bft) 0,00 %
17.08.2015 12:34 15,7 C 89 % 1010,2 hPa 0,0 l/m 1,8 km/h (1 Bft) NW 310 0 min 0,000 mm 1,0 UV-I 278 W/m 13,9 C 15,7 C 4,0 km/h (1 Bft) 0,00 %
17.08.2015 12:39 15,8 C 89 % 1010,1 hPa 0,0 l/m 4,7 km/h (1 Bft) W-SW 256 0 min 0,000 mm 1,0 UV-I 206 W/m 14,0 C 15,8 C 7,9 km/h (2 Bft) 0,00 %
17.08.2015 12:44 15,8 C 89 % 1010,3 hPa 0,0 l/m 0,0 km/h (0 Bft) N-NW 335 0 min 0,000 mm 1,0 UV-I 194 W/m 14,0 C 15,8 C 0,0 km/h (0 Bft) 0,00 %
17.08.2015 12:49 15,7 C 90 % 1010,1 hPa 0,0 l/m 4,3 km/h (1 Bft) N-NW 344 0 min 0,000 mm 1,0 UV-I 213 W/m 14,1 C 15,7 C 7,9 km/h (2 Bft) 0,00 %
17.08.2015 12:54 15,7 C 90 % 1010,1 hPa 0,0 l/m 2,2 km/h (1 Bft) N-NO 24 0 min 0,000 mm 2,0 UV-I 328 W/m 14,1 C 15,7 C 4,0 km/h (1 Bft) 0,00 %
17.08.2015 12:59 15,8 C 90 % 1010,2 hPa 0,0 l/m 0,0 km/h (0 Bft) N-NO 23 0 min 0,000 mm 2,0 UV-I 340 W/m 14,2 C 15,8 C 0,0 km/h (0 Bft) 0,00 %
17.08.2015 13:04 16,0 C 88 % 1009,9 hPa 0,0 l/m 0,0 km/h (0 Bft) N-NO 22 0 min 0,000 mm 1,0 UV-I 257 W/m 14,0 C 16,0 C 0,0 km/h (0 Bft) 0,00 %
17.08.2015 13:09 16,1 C 88 % 1010,2 hPa 0,0 l/m 2,2 km/h (1 Bft) N-NW 341 0 min 0,000 mm 1,0 UV-I 251 W/m 14,1 C 16,1 C 4,0 km/h (1 Bft) 0,00 %
17.08.2015 13:14 16,1 C 87 % 1010,1 hPa 0,0 l/m 2,2 km/h (1 Bft) W-SW 254 0 min 0,000 mm 2,0 UV-I 300 W/m 13,9 C 16,1 C 4,0 km/h (1 Bft) 0,00 %
17.08.2015 13:19 16,2 C 86 % 1010,0 hPa 0,0 l/m 0,0 km/h (0 Bft) O-NO 70 0 min 0,000 mm 1,0 UV-I 191 W/m 13,9 C 16,2 C 0,0 km/h (0 Bft) 0,00 %
17.08.2015 13:24 16,2 C 86 % 1009,8 hPa 0,0 l/m 0,0 km/h (0 Bft) N 359 0 min 0,000 mm 1,0 UV-I 180 W/m 13,9 C 16,2 C 0,0 km/h (0 Bft) 0,00 %
17.08.2015 13:29 16,2 C 86 % 1010,2 hPa 0,0 l/m 4,7 km/h (1 Bft) W-SW 249 0 min 0,000 mm 1,0 UV-I 136 W/m 13,9 C 16,2 C 7,9 km/h (2 Bft) 0,00 %
17.08.2015 13:35 16,1 C 87 % 1010,2 hPa 0,0 l/m 0,0 km/h (0 Bft) NO 45 0 min 0,000 mm 1,0 UV-I 148 W/m 13,9 C 16,1 C 0,0 km/h (0 Bft) 0,00 %
17.08.2015 13:40 16,1 C 87 % 1010,5 hPa 0,0 l/m 0,0 km/h (0 Bft) N 355 0 min 0,000 mm 0,0 UV-I 102 W/m 13,9 C 16,1 C 0,0 km/h (0 Bft) 0,00 %
17.08.2015 13:45 15,9 C 88 % 1010,3 hPa 0,0 l/m 2,9 km/h (1 Bft) NW 305 0 min 0,000 mm 1,0 UV-I 158 W/m 13,9 C 15,9 C 4,0 km/h (1 Bft) 0,00 %
17.08.2015 13:50 15,7 C 88 % 1009,9 hPa 0,0 l/m 0,7 km/h (0 Bft) O 92 0 min 0,000 mm 1,0 UV-I 241 W/m 13,7 C 15,7 C 4,0 km/h (1 Bft) 0,00 %
17.08.2015 13:55 15,6 C 87 % 1010,1 hPa 0,0 l/m 2,2 km/h (1 Bft) W-SW 255 0 min 0,000 mm 1,0 UV-I 294 W/m 13,4 C 15,6 C 4,0 km/h (1 Bft) 0,00 %
17.08.2015 14:00 15,9 C 86 % 1009,9 hPa 0,0 l/m 0,4 km/h (0 Bft) N-NW 335 0 min 0,000 mm 2,0 UV-I 312 W/m 13,6 C 15,9 C 4,0 km/h (1 Bft) 0,00 %
17.08.2015 14:05 16,2 C 84 % 1010,0 hPa 0,0 l/m 0,4 km/h (0 Bft) O-NO 64 0 min 0,000 mm 1,0 UV-I 291 W/m 13,5 C 16,2 C 4,0 km/h (1 Bft) 0,00 %
17.08.2015 14:10 16,3 C 82 % 1010,1 hPa 0,0 l/m 1,8 km/h (1 Bft) N-NW 332 0 min 0,000 mm 1,0 UV-I 251 W/m 13,2 C 16,3 C 4,0 km/h (1 Bft) 0,00 %
17.08.2015 14:15 16,4 C 82 % 1010,2 hPa 0,0 l/m 5,8 km/h (2 Bft) W-SW 256 0 min 0,000 mm 1,0 UV-I 244 W/m 13,3 C 16,4 C 7,9 km/h (2 Bft) 0,00 %
17.08.2015 14:20 16,4 C 81 % 1010,3 hPa 0,0 l/m 0,0 km/h (0 Bft) NO 36 0 min 0,000 mm 1,0 UV-I 218 W/m 13,1 C 16,4 C 0,0 km/h (0 Bft) 0,00 %
17.08.2015 14:25 16,4 C 81 % 1010,1 hPa 0,0 l/m 6,8 km/h (2 Bft) W-SW 256 0 min 0,000 mm 1,0 UV-I 227 W/m 13,1 C 16,2 C 11,9 km/h (2 Bft) 0,00 %
17.08.2015 14:30 16,3 C 81 % 1010,1 hPa 0,0 l/m 5,4 km/h (1 Bft) N 357 0 min 0,000 mm 1,0 UV-I 239 W/m 13,0 C 16,3 C 11,9 km/h (2 Bft) 0,00 %
17.08.2015 14:35 16,4 C 81 % 1010,1 hPa 0,0 l/m 0,7 km/h (0 Bft) NW 315 0 min 0,000 mm 1,0 UV-I 274 W/m 13,1 C 16,4 C 4,0 km/h (1 Bft) 0,00 %
17.08.2015 14:40 16,4 C 80 % 1010,1 hPa 0,0 l/m 1,4 km/h (1 Bft) W-SW 248 0 min 0,000 mm 1,0 UV-I 299 W/m 12,9 C 16,4 C 4,0 km/h (1 Bft) 0,00 %
17.08.2015 14:45 16,6 C 80 % 1010,1 hPa 0,0 l/m 9,0 km/h (2 Bft) W-SW 256 0 min 0,000 mm 1,0 UV-I 273 W/m 13,1 C 15,3 C 11,9 km/h (2 Bft) 0,00 %
17.08.2015 14:50 16,8 C 79 % 1010,1 hPa 0,0 l/m 0,0 km/h (0 Bft) N 356 0 min 0,000 mm 1,0 UV-I 268 W/m 13,1 C 16,8 C 0,0 km/h (0 Bft) 0,00 %
17.08.2015 14:55 16,9 C 78 % 1010,1 hPa 0,0 l/m 0,0 km/h (0 Bft) W-NW 301 0 min 0,000 mm 1,0 UV-I 292 W/m 13,0 C 16,9 C 0,0 km/h (0 Bft) 0,00 %
17.08.2015 15:00 17,0 C 77 % 1010,2 hPa 0,0 l/m 1,4 km/h (1 Bft) S 179 0 min 0,000 mm 1,0 UV-I 279 W/m 12,9 C 17,0 C 4,0 km/h (1 Bft) 0,00 %
17.08.2015 15:05 17,0 C 79 % 1010,3 hPa 0,0 l/m 0,7 km/h (0 Bft) S-SW 197 0 min 0,000 mm 1,0 UV-I 257 W/m 13,3 C 17,0 C 4,0 km/h (1 Bft) 0,00 %
17.08.2015 15:10 16,9 C 78 % 1010,2 hPa 0,0 l/m 0,7 km/h (0 Bft) N-NW 346 0 min 0,000 mm 1,0 UV-I 263 W/m 13,0 C 16,9 C 4,0 km/h (1 Bft) 0,00 %
17.08.2015 15:15 16,9 C 79 % 1010,2 hPa 0,0 l/m 3,2 km/h (1 Bft) W-SW 256 0 min 0,000 mm 2,0 UV-I 320 W/m 13,2 C 16,9 C 4,0 km/h (1 Bft) 0,00 %
17.08.2015 15:20 17,0 C 79 % 1010,2 hPa 0,0 l/m 2,2 km/h (1 Bft) W-NW 291 0 min 0,000 mm 1,0 UV-I 312 W/m 13,3 C 17,0 C 4,0 km/h (1 Bft) 0,00 %
17.08.2015 15:25 17,3 C 77 % 1010,2 hPa 0,0 l/m 0,0 km/h (0 Bft) O 79 0 min 0,000 mm 1,0 UV-I 304 W/m 13,2 C 17,3 C 0,0 km/h (0 Bft) 0,00 %
17.08.2015 15:30 17,5 C 75 % 1010,3 hPa 0,0 l/m 4,3 km/h (1 Bft) W-SW 256 0 min 0,000 mm 1,0 UV-I 315 W/m 13,0 C 17,5 C 7,9 km/h (2 Bft) 0,00 %
17.08.2015 15:35 17,6 C 77 % 1010,1 hPa 0,0 l/m 1,8 km/h (1 Bft) NW 311 0 min 0,000 mm 2,0 UV-I 325 W/m 13,5 C 17,6 C 4,0 km/h (1 Bft) 0,00 %
17.08.2015 15:40 17,6 C 76 % 1010,1 hPa 0,0 l/m 2,2 km/h (1 Bft) N 353 0 min 0,000 mm 1,0 UV-I 258 W/m 13,3 C 17,6 C 4,0 km/h (1 Bft) 0,00 %
17.08.2015 15:45 17,6 C 76 % 1010,3 hPa 0,0 l/m 2,2 km/h (1 Bft) NW 324 0 min 0,000 mm 1,0 UV-I 209 W/m 13,3 C 17,6 C 4,0 km/h (1 Bft) 0,00 %
17.08.2015 15:50 17,5 C 76 % 1010,3 hPa 0,0 l/m 6,8 km/h (2 Bft) N-NW 343 0 min 0,000 mm 1,0 UV-I 215 W/m 13,2 C 17,3 C 11,9 km/h (2 Bft) 0,00 %
17.08.2015 15:55 17,3 C 77 % 1010,4 hPa 0,0 l/m 0,0 km/h (0 Bft) N-NO 22 0 min 0,000 mm 1,0 UV-I 141 W/m 13,2 C 17,3 C 0,0 km/h (0 Bft) 0,00 %
17.08.2015 16:00 17,3 C 78 % 1010,7 hPa 0,0 l/m 0,4 km/h (0 Bft) N-NW 345 0 min 0,000 mm 1,0 UV-I 124 W/m 13,4 C 17,3 C 4,0 km/h (1 Bft) 0,00 %
17.08.2015 16:05 17,2 C 78 % 1010,5 hPa 0,0 l/m 1,8 km/h (1 Bft) N 351 0 min 0,000 mm 1,0 UV-I 168 W/m 13,3 C 17,2 C 4,0 km/h (1 Bft) 0,00 %
17.08.2015 16:10 17,0 C 79 % 1010,2 hPa 0,0 l/m 7,2 km/h (2 Bft) W 266 0 min 0,000 mm 1,0 UV-I 283 W/m 13,3 C 16,6 C 7,9 km/h (2 Bft) 0,00 %
17.08.2015 16:15 17,0 C 78 % 1010,3 hPa 0,0 l/m 1,4 km/h (1 Bft) NO 36 0 min 0,000 mm 1,0 UV-I 247 W/m 13,1 C 17,0 C 4,0 km/h (1 Bft) 0,00 %
17.08.2015 16:20 17,2 C 79 % 1010,3 hPa 0,0 l/m 0,4 km/h (0 Bft) NW 319 0 min 0,000 mm 1,0 UV-I 266 W/m 13,5 C 17,2 C 4,0 km/h (1 Bft) 0,00 %
17.08.2015 16:25 17,4 C 78 % 1010,1 hPa 0,0 l/m 1,4 km/h (1 Bft) W-NW 300 0 min 0,000 mm 1,0 UV-I 238 W/m 13,5 C 17,4 C 4,0 km/h (1 Bft) 0,00 %
17.08.2015 16:30 17,7 C 77 % 1010,2 hPa 0,0 l/m 0,0 km/h (0 Bft) N 355 0 min 0,000 mm 1,0 UV-I 241 W/m 13,6 C 17,7 C 0,0 km/h (0 Bft) 0,00 %
17.08.2015 16:35 17,8 C 77 % 1010,1 hPa 0,0 l/m 0,0 km/h (0 Bft) N 0 0 min 0,000 mm 1,0 UV-I 273 W/m 13,7 C 17,8 C 0,0 km/h (0 Bft) 0,00 %
17.08.2015 16:40 17,7 C 78 % 1009,9 hPa 0,0 l/m 2,9 km/h (1 Bft) W-SW 256 0 min 0,000 mm 1,0 UV-I 140 W/m 13,8 C 17,7 C 4,0 km/h (1 Bft) 0,00 %
17.08.2015 16:45 17,5 C 77 % 1010,4 hPa 0,0 l/m 0,4 km/h (0 Bft) S-SO 159 0 min 0,000 mm 1,0 UV-I 109 W/m 13,4 C 17,5 C 4,0 km/h (1 Bft) 0,00 %
17.08.2015 16:50 17,3 C 78 % 1010,3 hPa 0,0 l/m 1,4 km/h (1 Bft) W-NW 294 0 min 0,000 mm 1,0 UV-I 122 W/m 13,4 C 17,3 C 4,0 km/h (1 Bft) 0,00 %
17.08.2015 16:55 17,0 C 79 % 1010,2 hPa 0,0 l/m 4,7 km/h (1 Bft) O-NO 70 0 min 0,000 mm 1,0 UV-I 173 W/m 13,3 C 17,0 C 7,9 km/h (2 Bft) 0,00 %
17.08.2015 17:00 16,8 C 78 % 1010,3 hPa 0,0 l/m 2,2 km/h (1 Bft) W-SW 237 0 min 0,000 mm 1,0 UV-I 212 W/m 12,9 C 16,8 C 4,0 km/h (1 Bft) 0,00 %
17.08.2015 17:05 16,8 C 77 % 1010,1 hPa 0,0 l/m 2,9 km/h (1 Bft) W-NW 283 0 min 0,000 mm 1,0 UV-I 223 W/m 12,7 C 16,8 C 4,0 km/h (1 Bft) 0,00 %
17.08.2015 17:10 16,9 C 76 % 1010,0 hPa 0,0 l/m 1,4 km/h (1 Bft) W-SW 256 0 min 0,000 mm 1,0 UV-I 242 W/m 12,6 C 16,9 C 4,0 km/h (1 Bft) 0,00 %
17.08.2015 17:15 17,1 C 76 % 1010,1 hPa 0,0 l/m 2,2 km/h (1 Bft) N 7 5 min 0,000 mm 1,0 UV-I 262 W/m 12,8 C 17,1 C 4,0 km/h (1 Bft) 0,00 %
17.08.2015 17:20 17,2 C 77 % 1010,1 hPa 0,0 l/m 0,0 km/h (0 Bft) W-NW 301 0 min 0,000 mm 1,0 UV-I 228 W/m 13,1 C 17,2 C 0,0 km/h (0 Bft) 0,00 %
17.08.2015 17:25 17,4 C 76 % 1010,2 hPa 0,0 l/m 1,4 km/h (1 Bft) N-NW 341 0 min 0,000 mm 1,0 UV-I 170 W/m 13,1 C 17,4 C 4,0 km/h (1 Bft) 0,00 %
17.08.2015 17:30 17,4 C 75 % 1010,4 hPa 0,0 l/m 5,4 km/h (1 Bft) W-SW 252 0 min 0,000 mm 1,0 UV-I 160 W/m 12,9 C 17,4 C 7,9 km/h (2 Bft) 0,00 %
17.08.2015 17:35 17,3 C 76 % 1010,3 hPa 0,0 l/m 0,0 km/h (0 Bft) N 350 0 min 0,000 mm 1,0 UV-I 151 W/m 13,0 C 17,3 C 0,0 km/h (0 Bft) 0,00 %
17.08.2015 17:40 17,2 C 76 % 1010,6 hPa 0,0 l/m 1,4 km/h (1 Bft) S-SW 197 0 min 0,000 mm 1,0 UV-I 104 W/m 12,9 C 17,2 C 4,0 km/h (1 Bft) 0,00 %
17.08.2015 17:45 17,2 C 77 % 1010,7 hPa 0,0 l/m 0,0 km/h (0 Bft) N-NO 33 0 min 0,000 mm 1,0 UV-I 90 W/m 13,1 C 17,2 C 0,0 km/h (0 Bft) 0,00 %
17.08.2015 17:50 17,2 C 78 % 1010,8 hPa 0,0 l/m 0,0 km/h (0 Bft) N-NO 25 0 min 0,000 mm 0,0 UV-I 70 W/m 13,3 C 17,2 C 0,0 km/h (0 Bft) 0,00 %
17.08.2015 17:55 17,1 C 78 % 1010,8 hPa 0,0 l/m 0,0 km/h (0 Bft) N-NW 342 0 min 0,000 mm 0,0 UV-I 77 W/m 13,2 C 17,1 C 0,0 km/h (0 Bft) 0,00 %
17.08.2015 18:00 16,9 C 79 % 1010,7 hPa 0,0 l/m 0,0 km/h (0 Bft) SW 232 0 min 0,000 mm 1,0 UV-I 127 W/m 13,2 C 16,9 C 0,0 km/h (0 Bft) 0,00 %
17.08.2015 18:05 16,8 C 78 % 1010,4 hPa 0,0 l/m 0,7 km/h (0 Bft) W-NW 292 0 min 0,000 mm 1,0 UV-I 144 W/m 12,9 C 16,8 C 4,0 km/h (1 Bft) 0,00 %
17.08.2015 18:10 16,8 C 78 % 1010,5 hPa 0,0 l/m 0,0 km/h (0 Bft) N-NW 341 0 min 0,000 mm 1,0 UV-I 94 W/m 12,9 C 16,8 C 0,0 km/h (0 Bft) 0,00 %
17.08.2015 18:15 16,8 C 78 % 1011,0 hPa 0,0 l/m 10,8 km/h (2 Bft) W-SW 255 0 min 0,000 mm 0,0 UV-I 42 W/m 12,9 C 14,8 C 11,9 km/h (2 Bft) 0,00 %
17.08.2015 18:20 16,7 C 78 % 1011,0 hPa 0,0 l/m 0,4 km/h (0 Bft) NW 304 0 min 0,000 mm 0,0 UV-I 47 W/m 12,8 C 16,7 C 4,0 km/h (1 Bft) 0,00 %
17.08.2015 18:25 16,5 C 79 % 1011,0 hPa 0,0 l/m 1,8 km/h (1 Bft) NW 304 0 min 0,000 mm 0,0 UV-I 36 W/m 12,8 C 16,5 C 4,0 km/h (1 Bft) 0,00 %
17.08.2015 18:30 16,4 C 79 % 1010,9 hPa 0,0 l/m 0,0 km/h (0 Bft) NW 324 0 min 0,000 mm 0,0 UV-I 55 W/m 12,7 C 16,4 C 0,0 km/h (0 Bft) 0,00 %
17.08.2015 18:35 16,4 C 80 % 1010,8 hPa 0,0 l/m 2,9 km/h (1 Bft) N-NW 330 0 min 0,000 mm 0,0 UV-I 52 W/m 12,9 C 16,4 C 4,0 km/h (1 Bft) 0,00 %
17.08.2015 18:40 16,4 C 80 % 1010,9 hPa 0,0 l/m 0,0 km/h (0 Bft) N 353 0 min 0,000 mm 0,0 UV-I 57 W/m 12,9 C 16,4 C 0,0 km/h (0 Bft) 0,00 %
17.08.2015 18:45 16,4 C 80 % 1011,0 hPa 0,0 l/m 0,0 km/h (0 Bft) N 352 0 min 0,000 mm 0,0 UV-I 62 W/m 12,9 C 16,4 C 0,0 km/h (0 Bft) 0,00 %
17.08.2015 18:50 16,4 C 80 % 1010,9 hPa 0,0 l/m 0,0 km/h (0 Bft) N-NO 19 0 min 0,000 mm 0,0 UV-I 59 W/m 12,9 C 16,4 C 0,0 km/h (0 Bft) 0,00 %
17.08.2015 18:55 16,4 C 79 % 1011,2 hPa 0,0 l/m 1,4 km/h (1 Bft) N 356 0 min 0,000 mm 0,0 UV-I 40 W/m 12,7 C 16,4 C 4,0 km/h (1 Bft) 0,00 %
17.08.2015 19:00 16,4 C 79 % 1011,2 hPa 0,0 l/m 0,7 km/h (0 Bft) W-NW 288 0 min 0,000 mm 0,0 UV-I 33 W/m 12,7 C 16,4 C 4,0 km/h (1 Bft) 0,00 %
17.08.2015 19:05 16,4 C 79 % 1011,3 hPa 0,0 l/m 0,0 km/h (0 Bft) N 350 0 min 0,000 mm 0,0 UV-I 32 W/m 12,7 C 16,4 C 0,0 km/h (0 Bft) 0,00 %
17.08.2015 19:10 16,4 C 79 % 1011,2 hPa 0,0 l/m 0,0 km/h (0 Bft) N-NO 32 0 min 0,000 mm 0,0 UV-I 28 W/m 12,7 C 16,4 C 0,0 km/h (0 Bft) 0,00 %
17.08.2015 19:15 16,4 C 79 % 1011,4 hPa 0,0 l/m 1,8 km/h (1 Bft) N-NW 346 0 min 0,000 mm 0,0 UV-I 23 W/m 12,7 C 16,4 C 4,0 km/h (1 Bft) 0,00 %
17.08.2015 19:20 16,3 C 79 % 1011,5 hPa 0,0 l/m 0,0 km/h (0 Bft) N-NO 26 0 min 0,000 mm 0,0 UV-I 17 W/m 12,6 C 16,3 C 0,0 km/h (0 Bft) 0,00 %
17.08.2015 19:25 16,3 C 79 % 1011,6 hPa 0,0 l/m 0,0 km/h (0 Bft) NW 312 0 min 0,000 mm 0,0 UV-I 3 W/m 12,6 C 16,3 C 0,0 km/h (0 Bft) 0,00 %
17.08.2015 19:30 16,2 C 79 % 1011,6 hPa 0,0 l/m 0,0 km/h (0 Bft) O 91 0 min 0,000 mm 0,0 UV-I 0 W/m 12,6 C 16,2 C 0,0 km/h (0 Bft) 0,00 %
17.08.2015 19:35 16,2 C 79 % 1011,6 hPa 0,0 l/m 0,0 km/h (0 Bft) N-NW 341 0 min 0,000 mm 0,0 UV-I 2 W/m 12,6 C 16,2 C 0,0 km/h (0 Bft) 0,00 %
17.08.2015 19:40 16,2 C 80 % 1011,6 hPa 0,0 l/m 0,0 km/h (0 Bft) N 356 0 min 0,000 mm 0,0 UV-I 5 W/m 12,7 C 16,2 C 0,0 km/h (0 Bft) 0,00 %
17.08.2015 19:45 16,1 C 80 % 1011,5 hPa 0,0 l/m 2,2 km/h (1 Bft) W 277 0 min 0,000 mm 0,0 UV-I 5 W/m 12,6 C 16,1 C 4,0 km/h (1 Bft) 0,00 %
17.08.2015 19:50 16,1 C 80 % 1011,8 hPa 0,0 l/m 0,0 km/h (0 Bft) NW 317 0 min 0,000 mm 0,0 UV-I 1 W/m 12,6 C 16,1 C 0,0 km/h (0 Bft) 0,00 %
17.08.2015 19:55 16,0 C 81 % 1011,6 hPa 0,0 l/m 0,0 km/h (0 Bft) NO 47 0 min 0,000 mm 0,0 UV-I 0 W/m 12,7 C 16,0 C 0,0 km/h (0 Bft) 0,00 %
17.08.2015 20:00 16,0 C 81 % 1011,7 hPa 0,0 l/m 0,0 km/h (0 Bft) W-SW 258 0 min 0,000 mm 0,0 UV-I 0 W/m 12,7 C 16,0 C 0,0 km/h (0 Bft) 0,00 %
17.08.2015 20:05 15,9 C 82 % 1011,6 hPa 0,0 l/m 0,7 km/h (0 Bft) W 274 0 min 0,000 mm 0,0 UV-I 0 W/m 12,8 C 15,9 C 4,0 km/h (1 Bft) 0,00 %
17.08.2015 20:10 15,8 C 83 % 1011,6 hPa 0,0 l/m 4,0 km/h (1 Bft) W 277 0 min 0,000 mm 0,0 UV-I 0 W/m 12,9 C 15,8 C 7,9 km/h (2 Bft) 0,00 %
17.08.2015 20:15 15,8 C 83 % 1011,8 hPa 0,0 l/m 0,4 km/h (0 Bft) N 10 0 min 0,000 mm 0,0 UV-I 0 W/m 12,9 C 15,8 C 4,0 km/h (1 Bft) 0,00 %
17.08.2015 20:20 15,8 C 83 % 1011,8 hPa 0,0 l/m 0,0 km/h (0 Bft) N-NO 14 0 min 0,000 mm 0,0 UV-I 0 W/m 12,9 C 15,8 C 0,0 km/h (0 Bft) 0,00 %
17.08.2015 20:25 15,8 C 83 % 1011,6 hPa 0,0 l/m 4,0 km/h (1 Bft) W-SW 256 0 min 0,000 mm 0,0 UV-I 0 W/m 12,9 C 15,8 C 7,9 km/h (2 Bft) 0,00 %
17.08.2015 20:32 15,9 C 82 % 1011,9 hPa 0,0 l/m 1,4 km/h (1 Bft) NW 310 0 min 0,000 mm 0,0 UV-I 0 W/m 12,8 C 15,9 C 4,0 km/h (1 Bft) 0,00 %
17.08.2015 20:37 15,9 C 82 % 1011,8 hPa 0,0 l/m 0,4 km/h (0 Bft) O-NO 57 0 min 0,000 mm 0,0 UV-I 0 W/m 12,8 C 15,9 C 4,0 km/h (1 Bft) 0,00 %
17.08.2015 20:42 15,9 C 82 % 1012,1 hPa 0,0 l/m 0,4 km/h (0 Bft) N-NO 32 0 min 0,000 mm 0,0 UV-I 0 W/m 12,8 C 15,9 C 4,0 km/h (1 Bft) 0,00 %
17.08.2015 20:47 15,8 C 82 % 1012,2 hPa 0,0 l/m 2,9 km/h (1 Bft) W 275 0 min 0,000 mm 0,0 UV-I 0 W/m 12,7 C 15,8 C 7,9 km/h (2 Bft) 0,00 %
17.08.2015 20:52 15,8 C 82 % 1012,0 hPa 0,0 l/m 0,0 km/h (0 Bft) N-NO 23 0 min 0,000 mm 0,0 UV-I 0 W/m 12,7 C 15,8 C 0,0 km/h (0 Bft) 0,00 %
17.08.2015 20:57 15,8 C 82 % 1011,9 hPa 0,0 l/m 2,2 km/h (1 Bft) N-NW 348 0 min 0,000 mm 0,0 UV-I 0 W/m 12,7 C 15,8 C 4,0 km/h (1 Bft) 0,00 %
17.08.2015 21:02 15,8 C 82 % 1012,2 hPa 0,0 l/m 1,4 km/h (1 Bft) NW 310 0 min 0,000 mm 0,0 UV-I 0 W/m 12,7 C 15,8 C 4,0 km/h (1 Bft) 0,00 %
17.08.2015 21:07 15,8 C 82 % 1012,2 hPa 0,0 l/m 0,0 km/h (0 Bft) O-SO 111 0 min 0,000 mm 0,0 UV-I 0 W/m 12,7 C 15,8 C 0,0 km/h (0 Bft) 0,00 %
17.08.2015 21:12 15,8 C 82 % 1012,3 hPa 0,0 l/m 0,7 km/h (0 Bft) N 353 0 min 0,000 mm 0,0 UV-I 0 W/m 12,7 C 15,8 C 4,0 km/h (1 Bft) 0,00 %
17.08.2015 21:17 15,8 C 82 % 1012,3 hPa 0,0 l/m 0,4 km/h (0 Bft) N-NW 344 0 min 0,000 mm 0,0 UV-I 0 W/m 12,7 C 15,8 C 4,0 km/h (1 Bft) 0,00 %
17.08.2015 21:22 15,8 C 82 % 1012,1 hPa 0,0 l/m 0,0 km/h (0 Bft) O-NO 63 0 min 0,000 mm 0,0 UV-I 0 W/m 12,7 C 15,8 C 0,0 km/h (0 Bft) 0,00 %
17.08.2015 21:27 15,7 C 83 % 1012,3 hPa 0,0 l/m 3,2 km/h (1 Bft) W-SW 255 0 min 0,000 mm 0,0 UV-I 0 W/m 12,8 C 15,7 C 7,9 km/h (2 Bft) 0,00 %
17.08.2015 21:32 15,7 C 83 % 1012,4 hPa 0,0 l/m 2,9 km/h (1 Bft) S-SW 211 0 min 0,000 mm 0,0 UV-I 0 W/m 12,8 C 15,7 C 4,0 km/h (1 Bft) 0,00 %
17.08.2015 21:37 15,7 C 83 % 1012,5 hPa 0,0 l/m 1,8 km/h (1 Bft) W-SW 256 0 min 0,000 mm 0,0 UV-I 0 W/m 12,8 C 15,7 C 4,0 km/h (1 Bft) 0,00 %
17.08.2015 21:42 15,7 C 83 % 1012,6 hPa 0,0 l/m 0,0 km/h (0 Bft) NO 47 0 min 0,000 mm 0,0 UV-I 0 W/m 12,8 C 15,7 C 0,0 km/h (0 Bft) 0,00 %
17.08.2015 21:47 15,7 C 83 % 1012,5 hPa 0,0 l/m 1,8 km/h (1 Bft) O 89 0 min 0,000 mm 0,0 UV-I 0 W/m 12,8 C 15,7 C 4,0 km/h (1 Bft) 0,00 %
17.08.2015 21:52 15,6 C 84 % 1012,5 hPa 0,0 l/m 0,0 km/h (0 Bft) N-NO 17 0 min 0,000 mm 0,0 UV-I 0 W/m 12,9 C 15,6 C 0,0 km/h (0 Bft) 0,00 %
17.08.2015 21:57 15,6 C 84 % 1012,4 hPa 0,0 l/m 1,8 km/h (1 Bft) W-NW 298 0 min 0,000 mm 0,0 UV-I 0 W/m 12,9 C 15,6 C 4,0 km/h (1 Bft) 0,00 %
17.08.2015 22:02 15,6 C 84 % 1012,6 hPa 0,0 l/m 0,0 km/h (0 Bft) N-NO 21 0 min 0,000 mm 0,0 UV-I 0 W/m 12,9 C 15,6 C 0,0 km/h (0 Bft) 0,00 %
17.08.2015 22:07 15,5 C 84 % 1012,6 hPa 0,0 l/m 0,0 km/h (0 Bft) O-NO 57 0 min 0,000 mm 0,0 UV-I 0 W/m 12,8 C 15,5 C 0,0 km/h (0 Bft) 0,00 %
17.08.2015 22:12 15,5 C 85 % 1012,5 hPa 0,0 l/m 0,0 km/h (0 Bft) W-NW 299 0 min 0,000 mm 0,0 UV-I 0 W/m 13,0 C 15,5 C 0,0 km/h (0 Bft) 0,00 %
17.08.2015 22:17 15,5 C 85 % 1012,5 hPa 0,0 l/m 1,4 km/h (1 Bft) W 266 0 min 0,000 mm 0,0 UV-I 0 W/m 13,0 C 15,5 C 4,0 km/h (1 Bft) 0,00 %
17.08.2015 22:22 15,5 C 86 % 1012,6 hPa 0,0 l/m 1,4 km/h (1 Bft) N-NW 328 0 min 0,000 mm 0,0 UV-I 0 W/m 13,2 C 15,5 C 4,0 km/h (1 Bft) 0,00 %
17.08.2015 22:27 15,4 C 86 % 1012,7 hPa 0,0 l/m 0,0 km/h (0 Bft) N 356 0 min 0,000 mm 0,0 UV-I 0 W/m 13,1 C 15,4 C 0,0 km/h (0 Bft) 0,00 %
17.08.2015 22:32 15,4 C 86 % 1012,7 hPa 0,0 l/m 2,9 km/h (1 Bft) W-SW 255 0 min 0,000 mm 0,0 UV-I 0 W/m 13,1 C 15,4 C 4,0 km/h (1 Bft) 0,00 %
17.08.2015 22:37 15,3 C 86 % 1012,6 hPa 0,0 l/m 0,0 km/h (0 Bft) N 7 0 min 0,000 mm 0,0 UV-I 0 W/m 13,0 C 15,3 C 0,0 km/h (0 Bft) 0,00 %
17.08.2015 22:42 15,3 C 86 % 1012,5 hPa 0,0 l/m 0,0 km/h (0 Bft) NO 47 0 min 0,000 mm 0,0 UV-I 0 W/m 13,0 C 15,3 C 0,0 km/h (0 Bft) 0,00 %
17.08.2015 22:47 15,2 C 86 % 1012,7 hPa 0,0 l/m 0,7 km/h (0 Bft) NW 314 0 min 0,000 mm 0,0 UV-I 0 W/m 12,9 C 15,2 C 4,0 km/h (1 Bft) 0,00 %
17.08.2015 22:52 15,2 C 86 % 1012,6 hPa 0,0 l/m 2,2 km/h (1 Bft) O 99 0 min 0,000 mm 0,0 UV-I 0 W/m 12,9 C 15,2 C 4,0 km/h (1 Bft) 0,00 %
17.08.2015 22:57 15,2 C 86 % 1012,7 hPa 0,0 l/m 0,0 km/h (0 Bft) O 79 0 min 0,000 mm 0,0 UV-I 0 W/m 12,9 C 15,2 C 0,0 km/h (0 Bft) 0,00 %
17.08.2015 23:02 15,2 C 86 % 1012,8 hPa 0,0 l/m 1,8 km/h (1 Bft) NW 305 0 min 0,000 mm 0,0 UV-I 0 W/m 12,9 C 15,2 C 4,0 km/h (1 Bft) 0,00 %
17.08.2015 23:07 15,1 C 87 % 1012,8 hPa 0,0 l/m 6,5 km/h (2 Bft) W-SW 256 0 min 0,000 mm 0,0 UV-I 0 W/m 13,0 C 15,1 C 7,9 km/h (2 Bft) 0,00 %
17.08.2015 23:12 15,1 C 87 % 1012,8 hPa 0,0 l/m 0,0 km/h (0 Bft) W-NW 285 0 min 0,000 mm 0,0 UV-I 0 W/m 13,0 C 15,1 C 0,0 km/h (0 Bft) 0,00 %
17.08.2015 23:17 15,1 C 87 % 1012,9 hPa 0,0 l/m 4,7 km/h (1 Bft) W-SW 256 0 min 0,000 mm 0,0 UV-I 0 W/m 13,0 C 15,1 C 7,9 km/h (2 Bft) 0,00 %
17.08.2015 23:22 15,1 C 87 % 1012,8 hPa 0,0 l/m 0,0 km/h (0 Bft) NO 51 0 min 0,000 mm 0,0 UV-I 0 W/m 13,0 C 15,1 C 0,0 km/h (0 Bft) 0,00 %
17.08.2015 23:27 15,1 C 87 % 1013,0 hPa 0,0 l/m 1,4 km/h (1 Bft) W-NW 294 0 min 0,000 mm 0,0 UV-I 0 W/m 13,0 C 15,1 C 4,0 km/h (1 Bft) 0,00 %
17.08.2015 23:32 15,0 C 87 % 1013,0 hPa 0,0 l/m 3,2 km/h (1 Bft) W-NW 289 0 min 0,000 mm 0,0 UV-I 0 W/m 12,9 C 15,0 C 7,9 km/h (2 Bft) 0,00 %
17.08.2015 23:37 15,0 C 86 % 1012,9 hPa 0,0 l/m 0,0 km/h (0 Bft) NO 38 0 min 0,000 mm 0,0 UV-I 0 W/m 12,7 C 15,0 C 0,0 km/h (0 Bft) 0,00 %
17.08.2015 23:42 15,0 C 86 % 1013,0 hPa 0,0 l/m 0,0 km/h (0 Bft) NO 49 0 min 0,000 mm 0,0 UV-I 0 W/m 12,7 C 15,0 C 0,0 km/h (0 Bft) 0,00 %
17.08.2015 23:47 15,0 C 86 % 1013,0 hPa 0,0 l/m 0,7 km/h (0 Bft) NO 39 0 min 0,000 mm 0,0 UV-I 0 W/m 12,7 C 15,0 C 4,0 km/h (1 Bft) 0,00 %
17.08.2015 23:52 15,0 C 85 % 1013,0 hPa 0,0 l/m 0,0 km/h (0 Bft) NW 308 0 min 0,000 mm 0,0 UV-I 0 W/m 12,5 C 15,0 C 0,0 km/h (0 Bft) 0,00 %
17.08.2015 23:57 15,0 C 86 % 1012,9 hPa 0,0 l/m 1,4 km/h (1 Bft) NW 323 0 min 0,000 mm 0,0 UV-I 0 W/m 12,7 C 15,0 C 4,0 km/h (1 Bft) 0,00 %
_ Min-Zeit 07:29 15:30 05:04 - 00:14 - - - - - - 23:52 09:34 00:14 00:04
Minimum _ 14,8 C 75 % 1009,2 hPa - 0,0 km/h (0 Bft) - - - - - - 12,5 C 11,9 C 0,0 km/h (0 Bft) 0,00 %
_ Max-Zeit 16:35 07:34 23:27 07:04 09:24 - - 17:15 00:04 12:54 12:59 09:24 16:35 09:34 00:04
Maximum _ 17,8 C 99 % 1013,0 hPa 0,6 l/m 13,0 km/h
W-NW (3 Bft)
- - 5 min 0,000 mm 2,0 UV-I 340 W/m 15,0 C 17,8 C 19,8 km/h
W-SW (3 Bft)
0,00 %
Durchschnitt _ 15,9 C 87 % 1010,4 hPa #9,9 l/m 2,2 km/h (1 Bft) W-SW - #5 min. #0,000 mm 1,1 UV-I 161 W/m 13,7 C 15,7 C 4,1 km/h (1 Bft) 0,00 %